Terminal Aerodrome Forecast
Issued by NWS Sterling, VA

Current Version | Previous Version | Graphics & Text | Print | Product List | Glossary On
Versions: 1 2 3 4 5 6 7 8 9 10 11 12 13 14 15 16 17 18 19 20 21
282
FTUS41 KLWX 071041 AAB
TAFMRB
TAF AMD
KMRB 071041Z 0711/0806 VRB03KT 1/4SM FG SCT001 BKN050
     FM071200 VRB03KT 3SM BR SCT001 BKN050
     FM071300 31008G16KT P6SM SCT050
     FM072100 30005KT P6SM FEW200
     FM080000 VRB03KT P6SM SCT200=

USA.gov is the U.S. government's official web portal to all federal, state and local government web resources and services.